Погода в Визимьярах

Россия / Республика Марий Эл     56°26′06″N   46°56′25″E
темп.,
°C
ветер,
м/с
пор.,
м/с
влажн.,
%
обл.,
%
осадки,
мм/ч
давл.,
гПа
погр.,
м
15 апреля, чт
чт1500:00+10ююв27924 0.0 1021126
03:00+9ю22920 0.0 102128
06:00+8ююв249462 0.0 102074
09:00+11ю1388100 0.0 1020104
12:00+17юз23595 0.0 1019650
15:00+19з1149100 0.0 10191344
18:00+15ссв226962 0.0 101924
21:00+10св5119299 0.1 1021438
16 апреля, пт
пт1600:00+8св5118898 0.0 1023555
03:00+6св5138222 0.0 1024513
06:00+5св51280100 0.0 1025532
09:00+8всв597015 0.0 1026685
12:00+12всв575950 0.0 10261079
15:00+13всв565348 0.0 10261249
18:00+10св48565 0.0 1026563
21:00+6св411645 0.0 1028375
17 апреля, сб
сб1700:00+4св310705 0.0 1028291
03:00+2св310745 0.0 1029243
06:00+2св310735 0.0 1030289
09:00+8всв47450 0.0 1030713
12:00+12всв46350 0.0 10281213
15:00+12всв45360 0.0 10271403
18:00+9св36510 0.0 1027185
21:00+5св26690 0.0 102799
18 апреля, вс
вс1800:00+3св26770 0.0 1027112
03:00+2св26830 0.0 1027104
06:00+3св288136 0.0 1027201
09:00+8св3554100 0.0 1026646
12:00+11св4641100 0.0 10251385
15:00+12св5746100 0.0 10251815
18:00+6св51066100 0.0 1027797
21:00+5всв51253100 0.0 1028644
19 апреля, пн
пн1900:00+3всв41153100 0.0 1030644
03:000всв412591 0.0 1031503
06:000всв511640 0.0 1032614
09:00+4в58435 0.0 10331361
12:00+7в58305 0.0 10331871
15:00+8в56315 0.0 10311889
18:00+6в48390 0.0 1031574
21:00+1всв39570 0.0 1032203